Date String (YYYY-MM-DD hh:mm:ss) UTC,Instrument flags,Ambient pressure (hPa),Sample flow (lpm),Bypass flow (lpm),Sample temperature (°C),Ambient temperature (°C),ASC tube jacket temperature (°C),LED temperature (°C),Box temperature (°C),Sample RH (%),Span deviation,Mass concentration (μg/m³),Mass concentration (μg/m³),Mass concentration (μg/m³)
DateTimeUTC,F1_M11,P_M11,Q1_M11,Q2_M11,T1_M11,T2_M11,T3_M11,T4_M11,T5_M11,U1_M11,ZSPAN_M11,X2_M11,X0_M11,X1_M11
2023-01-07 03:00:00,,0826.9,5.00,0.00,23.8,22.4,00.0,32.7,25.6,11.1,0000.0,0004.11,0006.89,0003.80
2023-01-07 03:01:00,,0826.9,5.00,0.00,23.8,22.5,00.0,32.7,25.6,11.0,0000.0,0004.09,0006.89,0003.78
2023-01-07 03:02:00,,0826.8,5.00,0.00,23.8,22.5,00.0,32.7,25.6,11.0,0000.0,0004.05,0006.67,0003.77
2023-01-07 03:03:00,,0826.9,5.00,0.00,23.8,22.4,00.0,32.7,25.6,11.0,0000.0,0004.05,0007.52,0003.76
2023-01-07 03:04:00,,0826.9,4.99,0.00,23.8,22.4,00.0,32.7,25.5,11.0,0000.0,0004.02,0007.52,0003.73
2023-01-07 03:05:00,,0826.9,5.01,0.00,23.8,22.4,00.0,32.7,25.6,11.0,0000.0,0003.99,0007.53,0003.71
2023-01-07 03:06:00,,0826.9,5.02,0.00,23.8,22.4,00.0,32.7,25.6,11.0,0000.0,0003.95,0007.49,0003.69
2023-01-07 03:07:00,,0826.9,5.01,0.00,23.8,22.4,00.0,32.7,25.6,10.9,0000.0,0003.96,0007.38,0003.70
2023-01-07 03:08:00,,0826.9,5.01,0.00,23.8,22.5,00.0,32.7,25.6,11.0,0000.0,0003.99,0007.36,0003.74
2023-01-07 03:09:00,,0826.9,5.00,0.00,23.8,22.5,00.0,32.7,25.6,10.9,0000.0,0004.04,0007.44,0003.79
2023-01-07 03:10:00,,0826.9,4.99,0.00,23.8,22.5,00.0,32.7,25.6,11.0,0000.0,0004.08,0007.46,0003.84
2023-01-07 03:11:00,,0826.9,4.99,0.00,23.8,22.5,00.0,32.7,25.6,11.0,0000.0,0004.10,0007.34,0003.87
2023-01-07 03:12:00,,0827.0,4.99,0.00,23.8,22.5,00.0,32.7,25.6,11.1,0000.0,0004.11,0007.31,0003.88
2023-01-07 03:13:00,,0827.3,4.99,0.00,23.8,22.4,00.0,32.7,25.5,11.1,0000.0,0004.11,0007.34,0003.88
2023-01-07 03:14:00,,0827.2,5.01,0.00,23.8,22.4,00.0,32.7,25.5,11.2,0000.0,0004.08,0006.52,0003.86
2023-01-07 03:15:00,,0827.0,5.01,0.00,23.8,22.4,00.0,32.7,25.5,11.3,0000.0,0004.06,0006.19,0003.85
2023-01-07 03:16:00,,0827.4,5.02,0.00,23.8,22.3,00.0,32.7,25.4,11.3,0000.0,0004.02,0006.01,0003.82
2023-01-07 03:17:00,,0827.5,5.00,0.00,23.8,22.3,00.0,32.7,25.5,11.3,0000.0,0004.01,0005.93,0003.80
2023-01-07 03:18:00,,0827.2,5.00,0.00,23.8,22.3,00.0,32.7,25.5,11.2,0000.0,0003.96,0005.64,0003.77
2023-01-07 03:19:00,,0827.0,5.00,0.00,23.7,22.3,00.0,32.7,25.4,11.2,0000.0,0003.93,0005.70,0003.73
2023-01-07 03:20:00,,0827.1,5.00,0.00,23.7,22.3,00.0,32.6,25.5,11.2,0000.0,0003.88,0005.56,0003.70
2023-01-07 03:21:00,,0827.1,5.00,0.00,23.7,22.3,00.0,32.6,25.5,11.1,0000.0,0003.88,0005.60,0003.67
2023-01-07 03:22:00,,0827.1,5.01,0.00,23.7,22.3,00.0,32.6,25.5,11.1,0000.0,0003.90,0005.74,0003.66
2023-01-07 03:23:00,,0827.1,5.00,0.00,23.7,22.3,00.0,32.6,25.5,11.1,0000.0,0003.91,0006.09,0003.66
2023-01-07 03:24:00,,0827.1,5.00,0.00,23.7,22.3,00.0,32.6,25.5,11.1,0000.0,0003.92,0006.42,0003.67
2023-01-07 03:25:00,,0827.1,5.01,0.00,23.7,22.3,00.0,32.6,25.5,11.1,0000.0,0003.96,0006.76,0003.67
2023-01-07 03:26:00,,0827.1,5.00,0.00,23.7,22.3,00.0,32.6,25.5,11.1,0000.0,0003.98,0007.47,0003.69
2023-01-07 03:27:00,,0827.1,5.00,0.00,23.7,22.3,00.0,32.6,25.5,11.1,0000.0,0004.03,0007.67,0003.71
2023-01-07 03:28:00,,0827.2,4.99,0.00,23.7,22.3,00.0,32.6,25.5,11.1,0000.0,0004.07,0007.86,0003.76
2023-01-07 03:29:00,,0827.6,5.00,0.00,23.7,22.3,00.0,32.6,25.5,11.1,0000.0,0004.11,0008.06,0003.77
2023-01-07 03:30:00,,0827.4,5.00,0.00,23.7,22.3,00.0,32.6,25.5,11.1,0000.0,0004.14,0008.07,0003.77
2023-01-07 03:31:00,,0827.2,4.99,0.00,23.7,22.3,00.0,32.6,25.4,11.2,0000.0,0004.11,0008.01,0003.74
2023-01-07 03:32:00,,0827.0,5.00,0.00,23.7,22.3,00.0,32.6,25.4,11.1,0000.0,0004.08,0007.94,0003.72
2023-01-07 03:33:00,,0827.3,4.99,0.00,23.7,22.3,00.0,32.6,25.5,11.1,0000.0,0004.07,0007.90,0003.72
2023-01-07 03:34:00,,0827.3,4.99,0.00,23.7,22.3,00.0,32.6,25.4,11.0,0000.0,0004.07,0007.72,0003.74
2023-01-07 03:35:00,,0827.6,4.99,0.00,23.7,22.3,00.0,32.6,25.5,11.0,0000.0,0004.04,0007.81,0003.73
2023-01-07 03:36:00,,0827.3,5.01,0.00,23.7,22.3,00.0,32.6,25.5,11.0,0000.0,0004.02,0008.38,0003.73
2023-01-07 03:37:00,,0827.3,5.03,0.00,23.7,22.2,00.0,32.5,25.4,11.0,0000.0,0004.02,0007.90,0003.75
2023-01-07 03:38:00,,0827.5,5.00,0.00,23.7,22.2,00.0,32.5,25.3,11.0,0000.0,0004.06,0007.85,0003.75
2023-01-07 03:39:00,,0827.5,5.00,0.00,23.6,22.2,00.0,32.5,25.3,11.1,0000.0,0004.03,0007.69,0003.73
2023-01-07 03:40:00,,0827.3,5.00,0.00,23.6,22.1,00.0,32.5,25.3,11.1,0000.0,0004.03,0007.52,0003.72
2023-01-07 03:41:00,,0827.3,5.01,0.00,23.6,22.1,00.0,32.5,25.3,11.0,0000.0,0004.02,0007.45,0003.75
2023-01-07 03:42:00,,0827.0,5.02,0.00,23.6,22.1,00.0,32.5,25.3,11.0,0000.0,0004.04,0007.45,0003.79
2023-01-07 03:43:00,,0827.0,5.00,0.00,23.6,22.1,00.0,32.5,25.3,11.0,0000.0,0004.08,0007.53,0003.81
2023-01-07 03:44:00,,0827.2,5.00,0.00,23.6,22.1,00.0,32.5,25.3,11.1,0000.0,0004.07,0007.53,0003.80
2023-01-07 03:45:00,,0827.4,5.00,0.00,23.6,22.1,00.0,32.5,25.2,11.1,0000.0,0004.02,0007.59,0003.75
2023-01-07 03:46:00,,0827.2,5.00,0.00,23.6,22.1,00.0,32.5,25.2,11.1,0000.0,0004.04,0008.04,0003.75
2023-01-07 03:47:00,,0827.2,5.00,0.00,23.5,22.1,00.0,32.5,25.2,11.2,0000.0,0004.01,0007.08,0003.73
2023-01-07 03:48:00,,0827.1,5.00,0.00,23.5,22.0,00.0,32.5,25.1,11.3,0000.0,0003.98,0007.05,0003.70
2023-01-07 03:49:00,,0827.1,5.00,0.00,23.5,22.0,00.0,32.4,25.1,11.3,0000.0,0003.95,0006.95,0003.68
2023-01-07 03:50:00,,0827.1,5.01,0.00,23.5,22.0,00.0,32.4,25.1,11.4,0000.0,0003.96,0007.08,0003.70
2023-01-07 03:51:00,,0827.2,5.03,0.00,23.5,22.0,00.0,32.4,25.1,11.4,0000.0,0003.98,0007.31,0003.73
2023-01-07 03:52:00,,0827.2,5.03,0.00,23.5,21.9,00.0,32.4,25.1,11.4,0000.0,0003.98,0007.35,0003.75
2023-01-07 03:53:00,,0827.2,5.02,0.00,23.4,21.9,00.0,32.4,25.0,11.5,0000.0,0003.98,0007.36,0003.74
2023-01-07 03:54:00,,0827.2,5.00,0.00,23.4,21.9,00.0,32.4,25.0,11.5,0000.0,0003.99,0007.49,0003.74
2023-01-07 03:55:00,,0827.2,5.00,0.00,23.4,21.9,00.0,32.3,24.9,11.5,0000.0,0004.03,0007.57,0003.78
2023-01-07 03:56:00,,0827.2,4.99,0.00,23.4,21.8,00.0,32.3,24.9,11.5,0000.0,0004.04,0007.44,0003.80
2023-01-07 03:57:00,,0827.2,5.00,0.00,23.3,21.8,00.0,32.3,24.9,11.5,0000.0,0004.04,0006.38,0003.82
2023-01-07 03:58:00,,0827.2,5.01,0.00,23.3,21.8,00.0,32.3,24.9,11.6,0000.0,0004.08,0006.47,0003.85
2023-01-07 03:59:00,,0827.2,5.00,0.00,23.3,21.8,00.0,32.3,25.0,11.6,0000.0,0004.10,0006.53,0003.88
